Content
SEND FEEDBACK

Daily
Averages
Monthly
Summary
Canada

VANCOUVER, BRITISH COLUMBIA


Home > North America > Canada > British Columbia
Elevation: 2 meters     Latitude: 49 11N     Longitude: 123 10W

WEATHER
 
SELECT A DAY
Number of Records: 249,622;   Date Range: 5/15/97 - 8/24/14
 
SHARE

PRINT THIS DATA

[ ← Previous Day ]
WEATHER ALMANAC - 3 JULY, 2013
[ Next Day → ]
[ °F ]   °C
Weather ElementAverageHighLow
Temperature17.1 °C23 °C (4:55 pm)13 °C (2:15 am)
Dewpoint10.6 °C13 °C (3:15 pm)8 °C (8:55 pm)
Humidity67.3 %88 % (6:35 am)43 % (6:15 pm)
Barometer1018.6 hPa1020.7 hPa (8:35 am)1016.3 hPa (8:35 pm)
Wind Speed9.2 km/h20.4 km/h (7:15 pm)
Wind Gust27.8 km/h (8:55 pm)
Weather ElementAverage
Visibility15.6 km
Wind DirectionSE (137.5 °)

Weather ElementTotal
Precipitation---
Heating Degree Days0.3 (Base 18.3)
Growing Degree Days8 (Base 10)
Averaged from 71 records on 3 July, 2013
WEATHER CONDITIONS BREAKOUT
WIND DIRECTION BREAKOUT
WEATHER BY HOUR - 3 JULY, 2013
[ °F ]   °C
Local TimeTemperatureDewpointHumidityBarometerVisibilityWind DirectionWind SpeedGust SpeedPrecipitationEventsConditions
12:35 AM15 °C10 °C72 %1017.9 hPa16.1 kmSouth (180°)11.1 km/hClear
12:55 AM14 °C10 °C77 %1018.3 hPa16.1 kmSSE (160°)7.4 km/hClear
1:15 AM14 °C10 °C77 %1018.3 hPa16.1 kmSSE (160°)5.6 km/hClear
1:35 AM14 °C10 °C77 %1018.6 hPa16.1 kmSouth (170°)5.6 km/hClear
1:55 AM14 °C10 °C77 %1018.6 hPa16.1 kmSouth (170°)5.6 km/hClear
2:15 AM13 °C10 °C82 %1018.6 hPa16.1 kmSSE (160°)5.6 km/hClear
2:35 AM13 °C10 °C82 %1019 hPa16.1 kmSSE (160°)5.6 km/hClear
2:55 AM13 °C10 °C82 %1019 hPa16.1 kmSouth (180°)7.4 km/hClear
3:15 AM13 °C10 °C82 %1019 hPa16.1 kmCalmClear
3:35 AM13 °C10 °C82 %1019.3 hPa16.1 kmSouth (170°)5.6 km/hClear
3:55 AM13 °C10 °C82 %1019.3 hPa16.1 kmSSE (160°)5.6 km/hClear
4:15 AM13 °C10 °C82 %1019.3 hPa16.1 kmSSE (160°)5.6 km/hClear
4:35 AM13 °C10 °C82 %1019.3 hPa16.1 kmCalmClear
4:55 AM13 °C10 °C82 %1019.3 hPa16.1 kmSSE (160°)5.6 km/hClear
5:15 AM13 °C10 °C82 %1019.6 hPa12.9 kmSouth (180°)7.4 km/hClear
5:35 AM13 °C10 °C82 %1019.6 hPa12.9 kmSouth (170°)5.6 km/hRainLight Rain
5:55 AM13 °C10 °C82 %1020 hPa12.9 kmSouth (180°)11.1 km/hClear
6:15 AM13 °C10 °C82 %1020 hPa12.9 kmSouth (170°)5.6 km/hClear
6:35 AM13 °C11 °C88 %1020 hPa12.9 kmNorthClear
6:55 AM14 °C11 °C82 %1020 hPa12.9 kmSouth (180°)7.4 km/hClear
7:15 AM14 °C11 °C82 %1020.3 hPa14.5 kmCalmClear
7:35 AM15 °C12 °C82 %1020.3 hPa12.9 kmNorthClear
7:55 AM15 °C12 °C82 %1020.3 hPa14.5 kmCalmClear
8:15 AM15 °C12 °C82 %1020.3 hPa14.5 kmSSE (160°)5.6 km/hClear
8:35 AM16 °C12 °C77 %1020.7 hPa12.9 kmNorthClear
8:55 AM17 °C12 °C72 %1020.7 hPa16.1 kmSouth (180°)7.4 km/hClear
9:15 AM17 °C12 °C72 %1020.3 hPa16.1 kmSouth (190°)7.4 km/hClear
9:35 AM18 °C12 °C68 %1020.7 hPa14.5 kmNorthClear
9:55 AM18 °C11 °C64 %1020.3 hPa14.5 kmCalmClear
10:15 AM19 °C11 °C60 %1020.7 hPa16.1 kmNNE (20°)5.6 km/hClear
10:35 AM19 °C11 °C60 %1020.7 hPa16.1 kmNorth (350°)5.6 km/hClear
10:55 AM19 °C11 °C60 %1020.7 hPa16.1 kmNorth (360°)7.4 km/hClear
11:15 AM19 °C11 °C60 %1020.7 hPa16.1 kmNorth (360°)11.1 km/hClear
11:35 AM19 °C12 °C64 %1020.7 hPa16.1 kmCalmClear
11:55 AM19 °C11 °C60 %1020.3 hPa14.5 kmCalmClear
12:15 PM19 °C11 °C60 %1020.3 hPa16.1 kmNorth (10°)5.6 km/hClear
12:35 PM19 °C11 °C60 %1020.3 hPa16.1 kmNorth (10°)7.4 km/hClear
12:55 PM19 °C11 °C60 %1020.3 hPa16.1 kmNorth (10°)7.4 km/hClear
1:15 PM19 °C11 °C60 %1020 hPa16.1 kmNorth (10°)9.3 km/hClear
1:35 PM19 °C12 °C64 %1020 hPa16.1 kmNorth (10°)7.4 km/hClear
1:55 PM20 °C12 °C60 %1019.6 hPa16.1 kmCalmClear
2:15 PM20 °C12 °C60 %1019.6 hPa16.1 kmCalmClear
2:35 PM21 °C12 °C56 %1019.3 hPa16.1 kmNNE (20°)5.6 km/hClear
2:55 PM22 °C12 °C53 %1019.3 hPa16.1 kmSSW (200°)11.1 km/hClear
3:15 PM22 °C13 °C57 %1019 hPa16.1 kmSSW (200°)13 km/hClear
3:35 PM22 °C12 °C53 %1019 hPa16.1 kmSouth (190°)13 km/hClear
3:55 PM22 °C12 °C53 %1018.6 hPa16.1 kmSouth (190°)11.1 km/hClear
4:15 PM22 °C12 °C53 %1018.6 hPa16.1 kmSouth (180°)13 km/hClear
4:35 PM22 °C12 °C53 %1018.3 hPa16.1 kmSouth (190°)16.7 km/hClear
4:55 PM23 °C11 °C47 %1017.9 hPa16.1 kmSSW (200°)18.5 km/hClear
5:15 PM22 °C12 °C53 %1017.6 hPa16.1 kmSouth (190°)18.5 km/hClear
5:35 PM23 °C10 °C44 %1017.3 hPa16.1 kmSouth (190°)18.5 km/hClear
5:55 PM22 °C10 °C46 %1016.9 hPa16.1 kmSouth (190°)16.7 km/hClear
6:15 PM22 °C9 °C43 %1016.9 hPa16.1 kmSouth (190°)14.8 km/hClear
6:35 PM22 °C9 °C43 %1016.9 hPa16.1 kmSouth (190°)18.5 km/h25.9 km/hClear
6:55 PM21 °C10 °C49 %1016.6 hPa16.1 kmSouth (190°)18.5 km/hClear
7:15 PM20 °C10 °C52 %1016.6 hPa16.1 kmSouth (190°)20.4 km/h25.9 km/hClear
7:35 PM19 °C9 °C52 %1016.6 hPa14.5 kmSouth (180°)18.5 km/hClear
7:55 PM19 °C9 °C52 %1016.6 hPa16.1 kmSouth (180°)14.8 km/hClear
8:15 PM18 °C9 °C56 %1016.6 hPa14.5 kmSouth (180°)14.8 km/hClear
8:35 PM18 °C9 °C56 %1016.3 hPa16.1 kmSouth (180°)13 km/hClear
8:55 PM17 °C8 °C55 %1016.3 hPa16.1 kmSouth (180°)14.8 km/h27.8 km/hClear
9:15 PM17 °C9 °C59 %1016.3 hPa16.1 kmSouth (180°)14.8 km/hClear
9:35 PM16 °C9 °C63 %1016.3 hPa16.1 kmSouth (180°)13 km/hClear
9:55 PM15 °C9 °C67 %1016.6 hPa16.1 kmSouth (190°)11.1 km/hClear
10:15 PM14 °C10 °C77 %1016.6 hPa16.1 kmSSE (150°)9.3 km/hClear
10:35 PM14 °C10 °C77 %1016.6 hPa16.1 kmSouth (190°)14.8 km/hClear
10:55 PM14 °C10 °C77 %1016.9 hPa16.1 kmSouth (190°)14.8 km/hClear
11:15 PM14 °C10 °C77 %1016.9 hPa16.1 kmSouth (190°)14.8 km/hClear
11:35 PM13 °C10 °C82 %1016.9 hPa16.1 kmSouth (170°)7.4 km/hClear
11:55 PM13 °C11 °C88 %1016.9 hPa16.1 kmSouth (180°)11.1 km/hClear
Hourly data recorded from CZBB, located 0 kilometers away from Vancouver, British Columbia







STORIES FROM OUR PARTNERS